Weather History for Newcastle, WY

Change the Weather History Date:

Monday, July 8, 2013

  Actual Average (KCUT) Record (KCUT)
Temperature  
Mean Temperature 70 °F 65 °F  
Max Temperature 82 °F 79 °F 99 °F (1989)
Min Temperature 57 °F 52 °F 34 °F (1952)
Degree Days  
Heating Degree Days 0 2  
Month to date heating degree days 20  
Since 1 June heating degree days 240  
Since 1 July heating degree days 20  
Cooling Degree Days 4 2  
Month to date cooling degree days 16  
Year to date cooling degree days 42  
Since 1 June cooling degree days 41  
Growing Degree Days 20 (Base 50)    
Moisture  
Dew Point 55 °F    
Average Humidity 60    
Maximum Humidity 88    
Minimum Humidity 37    
Precipitation  
Precipitation 1.13 in 0.08 in 1.86 in (1926)
Month to date precipitation 0.60  
Year to date precipitation 10.93  
Sea Level Pressure  
Sea Level Pressure 30.05 in    
Wind  
Wind Speed 9 mph (ESE)    
Max Wind Speed 23 mph    
Max Gust Speed 32 mph    
Visibility 10 miles    
Events Rain , Thunderstorm    
T = Trace of Precipitation, MM = Missing Value Source: NWS Daily Summary

Daily Weather History Graph

Daily Weather History Graph

Search for Another Location

Airport:

Trip Planner

Search our weather history database for the weather conditions in past years. The results will help you decide how hot, cold, wet, or windy it might be!

Date:

Astronomy

Jul. 08, 2013 Rise Set
Actual Time 5:23 AM MDT 8:41 PM MDT
Civil Twilight 4:47 AM MDT 9:16 PM MDT
Nautical Twilight 4:01 AM MDT 10:02 PM MDT
Astronomical Twilight 3:04 AM MDT 10:59 PM MDT
Moon 5:58 AM MDT (7/8) 8:40 PM MDT (7/8)
Length of Visible Light 16h 28m
Length of Day
15h 17m
New Moon, 0% of the Moon is Illuminated
Jul 8
New Moon
Jul 15
First Quarter
Jul 22
Full
Jul 29
Last Quarter
Aug 6
New

Hourly Weather History & Observations

Time (MDT) Temp. Heat Index Dew Point Humidity Pressure Visibility Wind Dir Wind Speed Gust Speed Precip Events Conditions
12:15 AM 68.0 °F - 48.2 °F 49% 30.04 in 10.0 mi North - - N/A Rain Light Rain
12:35 AM 66.2 °F - 50.0 °F 56% 30.08 in 10.0 mi West 8.1 mph 18.4 mph N/A Rain , Thunderstorm Rain
12:55 AM 59.0 °F - 55.4 °F 88% 30.11 in 1.2 mi WNW 13.8 mph 18.4 mph 0.30 in Rain , Thunderstorm Heavy Thunderstorms and Rain
1:15 AM 59.0 °F - 53.6 °F 82% 30.12 in 2.5 mi NNW 4.6 mph - 0.24 in Rain , Thunderstorm Heavy Thunderstorms and Rain
1:35 AM 59.0 °F - 53.6 °F 82% 30.10 in 7.0 mi NW 10.4 mph - 0.29 in Rain , Thunderstorm Heavy Thunderstorms and Rain
1:55 AM 57.2 °F - 53.6 °F 88% 30.13 in 2.5 mi West 3.5 mph - 0.47 in Rain , Thunderstorm Heavy Thunderstorms and Rain
2:15 AM 57.2 °F - 53.6 °F 88% 30.11 in 2.5 mi ESE 11.5 mph - 0.23 in Rain , Thunderstorm Heavy Thunderstorms and Rain
2:35 AM 59.0 °F - 53.6 °F 82% 30.10 in 10.0 mi ESE 12.7 mph 25.3 mph 0.25 in Rain , Thunderstorm Heavy Thunderstorms and Rain
2:55 AM 59.0 °F - 51.8 °F 77% 30.06 in - ENE 23.0 mph 26.5 mph 0.25 in Rain Light Rain
3:15 AM 62.6 °F - 51.8 °F 68% 30.04 in - ENE 19.6 mph 32.2 mph N/A Thunderstorm Thunderstorm
3:35 AM 60.8 °F - 51.8 °F 72% 30.06 in 10.0 mi ESE 9.2 mph - N/A   Scattered Clouds
3:55 AM 60.8 °F - 51.8 °F 72% 30.06 in 10.0 mi SSE 8.1 mph - N/A   Scattered Clouds
4:15 AM 59.0 °F - 51.8 °F 77% 30.07 in 10.0 mi ESE 4.6 mph - N/A   Clear
4:35 AM 59.0 °F - 51.8 °F 77% 30.07 in 10.0 mi Calm Calm - N/A   Clear
4:55 AM 60.8 °F - 51.8 °F 72% 30.07 in 10.0 mi North - - N/A   Clear
5:15 AM 62.6 °F - 51.8 °F 68% 30.06 in 10.0 mi East 11.5 mph 18.4 mph N/A   Clear
5:35 AM 64.4 °F - 50.0 °F 59% 30.05 in 10.0 mi North - - N/A   Clear
5:55 AM 66.2 °F - 50.0 °F 56% 30.05 in 10.0 mi North - - N/A   Clear
6:15 AM 62.6 °F - 51.8 °F 68% 30.07 in 10.0 mi SSE 10.4 mph 16.1 mph N/A   Clear
6:35 AM 62.6 °F - 53.6 °F 72% 30.07 in 10.0 mi South 6.9 mph - N/A   Clear
6:55 AM 62.6 °F - 53.6 °F 72% 30.07 in 10.0 mi North - - N/A   Clear
7:15 AM 62.6 °F - 55.4 °F 77% 30.08 in 10.0 mi Calm Calm - N/A   Clear
7:35 AM 62.6 °F - 55.4 °F 77% 30.08 in 10.0 mi NW 5.8 mph - N/A   Clear
7:55 AM 62.6 °F - 57.2 °F 82% 30.09 in 10.0 mi NW 3.5 mph - N/A   Clear
8:15 AM 64.4 °F - 55.4 °F 73% 30.10 in 10.0 mi Calm Calm - N/A   Clear
8:35 AM 64.4 °F - 57.2 °F 77% 30.10 in 10.0 mi Calm Calm - N/A   Clear
8:55 AM 64.4 °F - 57.2 °F 77% 30.09 in 10.0 mi North 3.5 mph - N/A   Clear
9:15 AM 68.0 °F - 57.2 °F 68% 30.08 in 10.0 mi North - - N/A   Clear
9:35 AM 69.8 °F - 57.2 °F 64% 30.08 in 10.0 mi SSE 3.5 mph - N/A   Clear
9:55 AM 71.6 °F - 57.2 °F 60% 30.07 in 10.0 mi South 4.6 mph - N/A   Clear
10:15 AM 71.6 °F - 57.2 °F 60% 30.08 in 10.0 mi North - - N/A   Clear
10:35 AM 71.6 °F - 57.2 °F 60% 30.09 in 10.0 mi North - - N/A   Clear
10:55 AM 71.6 °F - 57.2 °F 60% 30.09 in 10.0 mi SSE 10.4 mph - N/A   Clear
11:15 AM 73.4 °F - 59.0 °F 61% 30.09 in 10.0 mi SSE 10.4 mph - N/A   Clear
11:55 AM 75.2 °F - 57.2 °F 53% 30.08 in 10.0 mi SSE 11.5 mph - N/A   Clear
12:15 PM 77.0 °F - 59.0 °F 54% 30.07 in 10.0 mi SE 10.4 mph 17.3 mph N/A   Clear
12:35 PM 77.0 °F - 59.0 °F 54% 30.07 in 10.0 mi SE 9.2 mph - N/A   Clear
12:55 PM 77.0 °F - 59.0 °F 54% 30.07 in 10.0 mi North - - N/A   Clear
1:15 PM 78.8 °F - 59.0 °F 51% 30.06 in 10.0 mi North - - N/A   Clear
1:35 PM 78.8 °F - 59.0 °F 51% 30.07 in 10.0 mi North - - N/A   Clear
1:55 PM 78.8 °F - 59.0 °F 51% 30.06 in 10.0 mi North - - N/A   Clear
2:15 PM 78.8 °F - 59.0 °F 51% 30.05 in 10.0 mi SE 10.4 mph - N/A   Clear
2:35 PM 78.8 °F - 59.0 °F 51% 30.05 in 10.0 mi SE 12.7 mph 16.1 mph N/A   Clear
2:55 PM 80.6 °F 81.1 °F 59.0 °F 48% 30.05 in 10.0 mi SE 10.4 mph - N/A   Clear
3:15 PM 80.6 °F 80.8 °F 57.2 °F 45% 30.04 in 10.0 mi ESE 6.9 mph - N/A   Clear
3:35 PM 80.6 °F 81.1 °F 59.0 °F 48% 30.04 in 10.0 mi ESE 6.9 mph - N/A   Clear
3:55 PM 82.4 °F 82.5 °F 59.0 °F 45% 30.03 in 10.0 mi SSE 5.8 mph - N/A   Clear
4:15 PM 82.4 °F 82.5 °F 59.0 °F 45% 30.02 in 10.0 mi North - - N/A   Clear
4:35 PM 82.4 °F 82.0 °F 57.2 °F 42% 30.02 in 10.0 mi East 5.8 mph - N/A   Clear
4:55 PM 80.6 °F 80.5 °F 55.4 °F 42% 30.00 in 10.0 mi North - - N/A   Clear
5:15 PM 80.6 °F 80.8 °F 57.2 °F 45% 30.00 in 10.0 mi North - - N/A   Clear
5:35 PM 80.6 °F 81.1 °F 59.0 °F 48% 29.99 in 10.0 mi North - - N/A   Clear
5:55 PM 82.4 °F 81.7 °F 55.4 °F 39% 29.98 in 10.0 mi Calm Calm - N/A   Clear
6:15 PM 82.4 °F 81.7 °F 55.4 °F 39% 29.98 in 10.0 mi East 4.6 mph - N/A   Clear
6:35 PM 82.4 °F 81.4 °F 53.6 °F 37% 29.98 in 10.0 mi ESE 4.6 mph - N/A   Clear
6:55 PM 82.4 °F 81.7 °F 55.4 °F 39% 29.98 in 10.0 mi North - - N/A   Clear
7:15 PM 82.4 °F 81.7 °F 55.4 °F 39% 29.97 in 10.0 mi ESE 6.9 mph - N/A   Clear
7:35 PM 80.6 °F 80.5 °F 55.4 °F 42% 29.97 in 10.0 mi North - - N/A   Clear
7:55 PM 77.0 °F - 55.4 °F 47% 29.98 in 10.0 mi North - - N/A   Clear
8:15 PM 73.4 °F - 57.2 °F 57% 29.99 in 10.0 mi ESE 6.9 mph - N/A   Clear
8:35 PM 73.4 °F - 59.0 °F 61% 30.00 in 10.0 mi East 3.5 mph - N/A   Clear
8:55 PM 73.4 °F - 57.2 °F 57% 30.00 in 10.0 mi ESE 5.8 mph - N/A Thunderstorm Clear
9:15 PM 73.4 °F - 60.8 °F 65% 30.03 in 10.0 mi Calm Calm - N/A Thunderstorm Thunderstorm
9:35 PM 73.4 °F - 57.2 °F 57% 30.08 in 7.0 mi West 13.8 mph 24.2 mph 0.03 in Rain , Thunderstorm Heavy Thunderstorms and Rain
9:55 PM 66.2 °F - 55.4 °F 68% 30.03 in 10.0 mi SSE 9.2 mph 26.5 mph 0.11 in Rain , Thunderstorm Light Thunderstorms and Rain
10:15 PM 68.0 °F - 55.4 °F 64% 30.05 in 10.0 mi East 4.6 mph - N/A   Clear
10:35 PM 69.8 °F - 55.4 °F 60% 30.08 in 10.0 mi North 16.1 mph 25.3 mph N/A   Clear
10:55 PM 68.0 °F - 51.8 °F 56% 30.08 in 10.0 mi NNE 19.6 mph 29.9 mph N/A   Clear
11:15 PM 68.0 °F - 50.0 °F 52% 30.08 in 10.0 mi North 19.6 mph 24.2 mph N/A   Scattered Clouds
11:35 PM 68.0 °F - 48.2 °F 49% 30.07 in 10.0 mi NNE 16.1 mph 24.2 mph N/A   Scattered Clouds
11:55 PM 68.0 °F - 48.2 °F 49% 30.09 in 10.0 mi North 12.7 mph 19.6 mph N/A Thunderstorm Scattered Clouds